Cadillac, MI

4:25 AM EDT on September 20, 2019 (GMT -0400)
Wexford County

Weather History for KCAD - August, 2019

Change the Weather History Date:

Friday, August 23, 2019

  Actual Average Record
Temperature  
Mean Temperature 56 °F -  
Max Temperature 72 °F 75 °F 92 °F (1954)
Min Temperature 41 °F 50 °F 31 °F (1951)
Degree Days  
Heating Degree Days 8    
Growing Degree Days 6 (Base 50)    
Moisture  
Dew Point 45 °F    
Average Humidity 65    
Maximum Humidity 92    
Minimum Humidity 35    
Precipitation  
Precipitation 0.00 in - - ()
Sea Level Pressure  
Sea Level Pressure 30.21 in    
Wind  
Wind Speed 2 mph (NNE)    
Max Wind Speed 9 mph    
Max Gust Speed 17 mph    
Visibility 10 miles    
Events      
Averages and records for this station are not official NWS values.
T = Trace of Precipitation, MM = Missing Value Source: NWS Daily Summary

Daily Weather History Graph

Daily Weather History Graph

Search for Another Location

Airport or City:

Astronomy

Aug. 23, 2019 Rise Set
Actual Time 6:53 AM EDT 8:33 PM EDT
Civil Twilight 6:23 AM EDT 9:04 PM EDT
Nautical Twilight 5:45 AM EDT 9:41 PM EDT
Astronomical Twilight 5:05 AM EDT 10:21 PM EDT
Moon 12:09 AM EDT (8/23) 2:47 PM EDT (8/23)
Length of Visible Light 14h 41m
Length of Day
13h 39m
Waning Gibbous, 50% of the Moon is Illuminated
Aug 23
Waning Gibbous
Aug 30
New
Sep 5
First Quarter
Sep 14
Full
Sep 21
Last Quarter

Hourly Weather History & Observations

Time (EDT) Temp. Dew Point Humidity Pressure Visibility Wind Dir Wind Speed Gust Speed Precip Events Conditions
12:15 AM 48.4 °F 45.7 °F 90% 30.13 in 10.0 mi Calm Calm - N/A   Clear
12:35 AM 50.9 °F 47.7 °F 89% 30.13 in 10.0 mi Calm Calm - N/A   Clear
12:40 AM 50.4 °F 47.8 °F 91% 30.13 in 10.0 mi Calm Calm - N/A   Clear
12:58 AM 50.4 °F 47.7 °F 90% 30.13 in 10.0 mi Calm Calm - N/A   Clear
1:16 AM 48.7 °F 46.2 °F 91% 30.13 in 10.0 mi Calm Calm - N/A   Clear
1:35 AM 48.4 °F 45.7 °F 90% 30.14 in 10.0 mi Calm Calm - N/A   Clear
1:55 AM 46.8 °F 44.2 °F 91% 30.14 in 10.0 mi Calm Calm - N/A   Clear
1:56 AM 46.8 °F 44.4 °F 92% 30.14 in 10.0 mi Calm Calm - N/A   Clear
2:18 AM 45.9 °F 43.5 °F 92% 30.14 in 10.0 mi Calm Calm - N/A   Clear
2:37 AM 45.9 °F 43.3 °F 91% 30.14 in 10.0 mi Calm Calm - N/A   Clear
2:55 AM 43.9 °F 41.4 °F 91% 30.15 in 10.0 mi Calm Calm - N/A   Clear
3:15 AM 45.5 °F 43.0 °F 91% 30.15 in 10.0 mi Calm Calm - N/A   Clear
3:16 AM 45.3 °F 42.8 °F 91% 30.15 in 10.0 mi Calm Calm - N/A   Clear
3:35 AM 44.4 °F 41.9 °F 91% 30.15 in 10.0 mi Calm Calm - N/A   Clear
3:40 AM 44.1 °F 41.5 °F 91% 30.15 in 10.0 mi Calm Calm - N/A   Clear
3:58 AM 43.9 °F 41.4 °F 91% 30.16 in 10.0 mi Calm Calm - N/A   Clear
4:16 AM 43.5 °F 40.8 °F 90% 30.16 in 10.0 mi Calm Calm - N/A   Clear
4:35 AM 43.2 °F 40.8 °F 91% 30.17 in 10.0 mi Calm Calm - N/A   Clear
4:36 AM 43.0 °F 40.6 °F 91% 30.17 in 10.0 mi Calm Calm - N/A   Clear
4:55 AM 43.2 °F 40.6 °F 91% 30.17 in 10.0 mi Calm Calm - N/A   Clear
5:19 AM 42.1 °F 39.6 °F 91% 30.18 in 10.0 mi Calm Calm - N/A   Clear
5:37 AM 41.9 °F 39.4 °F 91% 30.19 in 10.0 mi Calm Calm - N/A   Clear
5:55 AM 41.9 °F 39.4 °F 91% 30.19 in 10.0 mi Calm Calm - N/A   Clear
5:56 AM 41.9 °F 39.2 °F 90% 30.19 in 10.0 mi Calm Calm - N/A   Clear
6:15 AM 41.9 °F 39.4 °F 91% 30.19 in 10.0 mi Calm Calm - N/A   Clear
6:35 AM 41.7 °F 39.2 °F 91% 30.20 in 10.0 mi Calm Calm - N/A   Clear
6:58 AM 41.9 °F 39.2 °F 90% 30.20 in 10.0 mi Calm Calm - N/A   Clear
7:16 AM 41.7 °F 39.2 °F 91% 30.20 in 10.0 mi Calm Calm - N/A   Scattered Clouds
7:35 AM 42.6 °F 40.1 °F 91% 30.20 in 10.0 mi Calm Calm - N/A   Scattered Clouds
7:55 AM 45.1 °F 42.6 °F 91% 30.20 in 10.0 mi Calm Calm - N/A   Clear
8:19 AM 49.1 °F 46.6 °F 91% 30.20 in 10.0 mi Calm Calm - N/A   Clear
8:37 AM 52.5 °F 49.8 °F 91% 30.20 in 10.0 mi Calm Calm - N/A   Clear
8:55 AM 56.5 °F 52.2 °F 85% 30.21 in 10.0 mi Calm Calm - N/A   Clear
9:15 AM 59.7 °F 50.5 °F 72% 30.22 in 10.0 mi North 4.6 mph - N/A   Clear
9:35 AM 61.2 °F 50.2 °F 67% 30.23 in 10.0 mi North 5.8 mph - N/A   Clear
9:58 AM 62.1 °F 50.0 °F 65% 30.23 in 10.0 mi NNE 6.9 mph - N/A   Scattered Clouds
10:16 AM 63.3 °F 49.8 °F 61% 30.23 in 10.0 mi North 5.8 mph - N/A   Scattered Clouds
10:35 AM 64.6 °F 49.3 °F 58% 30.23 in 10.0 mi North 5.8 mph - N/A   Clear
11:19 AM 65.8 °F 47.7 °F 52% 30.24 in 10.0 mi North 6.9 mph - N/A   Scattered Clouds
11:37 AM 67.5 °F 48.0 °F 50% 30.25 in 10.0 mi NNW 6.9 mph - N/A   Scattered Clouds
11:55 AM 66.4 °F 47.7 °F 51% 30.24 in 10.0 mi NE 4.6 mph - N/A   Scattered Clouds
11:56 AM 66.4 °F 47.8 °F 51% 30.24 in 10.0 mi NE 6.9 mph - N/A   Scattered Clouds
12:15 PM 68.7 °F 47.5 °F 47% 30.24 in 10.0 mi NE 9.2 mph - N/A   Mostly Cloudy
12:16 PM 68.7 °F 47.3 °F 46% 30.24 in 10.0 mi NE 6.9 mph - N/A   Mostly Cloudy
12:35 PM 68.2 °F 46.6 °F 46% 30.24 in 10.0 mi NNE 4.6 mph - N/A   Scattered Clouds
12:57 PM 70.3 °F 45.7 °F 41% 30.24 in 10.0 mi ENE 6.9 mph - N/A   Mostly Cloudy
1:16 PM 69.6 °F 45.5 °F 42% 30.24 in 10.0 mi NNE 8.1 mph - N/A   Mostly Cloudy
1:35 PM 70.7 °F 45.7 °F 41% 30.24 in 10.0 mi NNE 5.8 mph - N/A   Overcast
1:36 PM 70.7 °F 45.5 °F 40% 30.24 in 10.0 mi NNE 6.9 mph - N/A   Overcast
1:55 PM 71.4 °F 43.2 °F 36% 30.24 in 10.0 mi ENE 3.5 mph - N/A   Overcast
1:56 PM 70.9 °F 43.2 °F 37% 30.24 in 10.0 mi Calm Calm - N/A   Overcast
2:19 PM 69.3 °F 44.8 °F 41% 30.23 in 10.0 mi NNE 5.8 mph - N/A   Overcast
2:37 PM 72.1 °F 43.2 °F 35% 30.23 in 10.0 mi North 6.9 mph - N/A   Mostly Cloudy
2:55 PM 69.3 °F 43.2 °F 39% 30.23 in 10.0 mi NNE 8.1 mph 17.3 mph N/A   Mostly Cloudy
2:56 PM 69.3 °F 43.0 °F 39% 30.23 in 10.0 mi NNE 9.2 mph - N/A   Overcast
3:15 PM 71.2 °F 44.2 °F 38% 30.23 in 10.0 mi East 3.5 mph - N/A   Mostly Cloudy
3:16 PM 71.6 °F 44.6 °F 38% 30.23 in 10.0 mi East 4.6 mph - N/A   Mostly Cloudy
3:35 PM 70.0 °F 44.2 °F 40% 30.23 in 10.0 mi NNE 8.1 mph - N/A   Mostly Cloudy
3:58 PM 69.4 °F 42.8 °F 38% 30.22 in 10.0 mi North 5.8 mph - N/A   Mostly Cloudy
4:16 PM 72.3 °F 44.4 °F 37% 30.22 in 10.0 mi ENE 9.2 mph - N/A   Mostly Cloudy
4:35 PM 69.8 °F 44.2 °F 40% 30.22 in 10.0 mi NNE 4.6 mph - N/A   Mostly Cloudy
4:55 PM 70.7 °F 43.2 °F 37% 30.22 in 10.0 mi North 3.5 mph - N/A   Mostly Cloudy
5:19 PM 69.8 °F 43.0 °F 38% 30.22 in 10.0 mi ENE 5.8 mph - N/A   Mostly Cloudy
5:37 PM 70.7 °F 43.5 °F 37% 30.22 in 10.0 mi NE 3.5 mph - N/A   Mostly Cloudy
5:55 PM 71.6 °F 42.6 °F 35% 30.22 in 10.0 mi ENE 8.1 mph - N/A   Overcast
6:15 PM 72.1 °F 43.2 °F 35% 30.23 in 10.0 mi NE 6.9 mph - N/A   Overcast
6:35 PM 71.6 °F 44.8 °F 38% 30.23 in 10.0 mi NNE 3.5 mph - N/A   Mostly Cloudy
6:40 PM 71.4 °F 45.9 °F 40% 30.23 in 10.0 mi NE 9.2 mph - N/A   Mostly Cloudy
6:58 PM 70.7 °F 45.9 °F 41% 30.23 in 10.0 mi NE 9.2 mph - N/A   Overcast
7:16 PM 69.3 °F 43.9 °F 40% 30.23 in 10.0 mi North 3.5 mph - N/A   Overcast
7:35 PM 66.2 °F 48.2 °F 52% 30.23 in 10.0 mi NNW 4.6 mph - N/A   Scattered Clouds
7:55 PM 64.9 °F 48.9 °F 56% 30.23 in 10.0 mi NNW 3.5 mph - N/A   Clear
7:56 PM 64.8 °F 48.9 °F 56% 30.23 in 10.0 mi NNW 3.5 mph - N/A   Clear
8:19 PM 63.5 °F 47.5 °F 56% 30.24 in 10.0 mi North 4.6 mph - N/A   Clear
8:37 PM 62.4 °F 46.4 °F 56% 30.24 in 10.0 mi NNW 3.5 mph - N/A   Clear
8:55 PM 61.0 °F 45.9 °F 58% 30.24 in 10.0 mi North 4.6 mph - N/A   Clear
9:15 PM 58.8 °F 45.9 °F 62% 30.24 in 10.0 mi North 3.5 mph - N/A   Clear
9:35 PM 59.2 °F 45.9 °F 61% 30.25 in 10.0 mi North 3.5 mph - N/A   Clear
9:40 PM 59.0 °F 45.9 °F 62% 30.25 in 10.0 mi North 3.5 mph - N/A   Clear
9:58 PM 58.3 °F 46.2 °F 64% 30.26 in 10.0 mi North 4.6 mph - N/A   Clear
10:16 PM 58.3 °F 46.4 °F 65% 30.26 in 10.0 mi North 3.5 mph - N/A   Clear
10:35 PM 58.1 °F 46.8 °F 66% 30.27 in 10.0 mi North 3.5 mph - N/A   Clear
10:55 PM 57.6 °F 47.1 °F 68% 30.27 in 10.0 mi Calm Calm - N/A   Clear
10:56 PM 57.6 °F 47.1 °F 68% 30.27 in 10.0 mi Calm Calm - N/A   Clear
11:19 PM 57.0 °F 47.7 °F 71% 30.28 in 10.0 mi North 3.5 mph - N/A   Clear
11:37 PM 56.5 °F 48.2 °F 74% 30.29 in 10.0 mi Calm Calm - N/A   Clear
11:55 PM 55.9 °F 48.4 °F 76% 30.29 in 10.0 mi Calm Calm - N/A   Clear